FENGYUN 1C DEB, 30304

Orbit data source: Space-Track

FENGYUN 1C DEB, 30304 is space debris in SSO originally from a launch on Mon, 10 May 1999 UTC launched from the Taiyaun Space Center, China (TSC). Fengyun 1C debris stems from the Chinese weather satellite Fengyun-1C, which was intentionally destroyed by a Chinese anti-satellite missile in 2007. This event dramatically increased the amount of space debris, with thousands of trackable fragments posing hazards to satellites and human spaceflight. The Fengyun 1C debris cloud has become a focal point in discussions about space sustainability and the need for international regulations to prevent the creation of new debris.

Loading next visibility...
Identifier
30304, 1999-025ZR
Orbit
SSO
Country
Flag of CNCN / PRC
Related business
Manufacturer
Unknown
Mission
Spacecraft
Bus & Motor
Unknown
Mass
Unknown
Launch date (UTC)
1999-05-10 (27 years ago)
Launch vehicle
Unknown
Launch site
Taiyaun Space Center, China (TSC)
Object type
Payload
Rocket body
Debris
Shape & HBR
Unknown shape, 0.1 m
Radar Cross Section
Small (<0.1 m²)

Expand to show TLE details & history
Last TLE update: 1 day ago

TLE from 1 day ago
0 FENGYUN 1C DEB
1 30304U 99025ZR  26145.14470118  .00001789  00000-0  90324-3 0  9995
2 30304  99.0206 224.6953 0070279 304.4220  55.0323 14.16314132991316
Epoch: 2026-05-25T03:28Z
TLE epoch observation values (Epoch: 2026-05-25T03:28:22.181Z)
Latitude
-0.0001°
Longitude
-70.13381°
Altitude
811.915 km
Speed
7.462 km/s
True Right ascension
14h 58m 46s
True Declination
0° 00' 00"
Sunlit
Object was in full shadow at epoch
Visualization orbit readout
Latitude
Unknown
Longitude
Unknown
Altitude
Unknown
Speed
Unknown
Apparent Right ascension
Unknown
Apparent Declination
Unknown
Sunlit
N/A
Visualization observer readout
Local Sidereal Time
13:02:27
Azimuth
Unknown
Elevation
Unknown
Doppler factor
Unknown
Orbital elements
Apogee altitude
885.717 km
Perigee altitude
784.33 km
Semi-major axis
7,213.161 km
Eccentricity
0.00703
Inclination
99.0206°
RAAN
224.6953°
Arg. of periapsis
304.422°
True anomaly
55.69558°
Mean anomaly
55.0323°
Eccentric anomaly
55.36361°
Mean motion
3.54287 °/min
Orbital period
101.61 mins
BSTAR
0.00090324
Loading maneuver chart data...
Computing Atmospheric mass density...
Loading historical data...
Loading historical data...
Loading historical data...
Loading historical data...
Loading historical data...
Loading historical data...
Loading historical data...

Documentation

Showing up to 5 results
|